Time,TemperatureF,DewpointF,PressureIn,WindDirection,WindDirectionDegrees,WindSpeedMPH,WindSpeedGustMPH,Humidity,HourlyPrecipIn,Conditions,Clouds,dailyrainin,SoftwareType,DateUTC
2013-12-26 00:03:00,54.9,5.0,30.11,NE,38,0.0,0.0,13,0.00,,,0.00,VWS V14.01,2013-12-26 08:03:00,
2013-12-26 00:08:00,54.3,4.5,30.11,NE,38,0.0,0.0,13,0.00,,,0.00,VWS V14.01,2013-12-26 08:08:00,
2013-12-26 00:13:00,53.6,4.0,30.11,NE,38,0.0,0.0,13,0.00,,,0.00,VWS V14.01,2013-12-26 08:13:00,
2013-12-26 00:18:00,53.1,3.5,30.11,NE,38,0.0,0.0,13,0.00,,,0.00,VWS V14.01,2013-12-26 08:18:00,
2013-12-26 00:23:00,52.9,3.4,30.11,NE,38,0.0,0.0,13,0.00,,,0.00,VWS V14.01,2013-12-26 08:23:00,
2013-12-26 00:28:00,52.7,3.2,30.11,NE,38,0.0,0.0,13,0.00,,,0.00,VWS V14.01,2013-12-26 08:28:00,
2013-12-26 00:33:00,52.3,3.0,30.11,NE,38,0.0,0.0,13,0.00,,,0.00,VWS V14.01,2013-12-26 08:33:00,
2013-12-26 00:38:00,52.0,2.7,30.14,NE,38,0.0,0.0,13,0.00,,,0.00,VWS V14.01,2013-12-26 08:38:00,
2013-12-26 00:43:00,52.5,3.1,30.14,East,84,0.0,0.0,13,0.00,,,0.00,VWS V14.01,2013-12-26 08:43:00,
2013-12-26 00:48:00,53.2,3.7,30.14,East,84,0.0,0.0,13,0.00,,,0.00,VWS V14.01,2013-12-26 08:48:00,
2013-12-26 00:53:00,53.4,3.8,30.11,East,84,0.0,0.0,13,0.00,,,0.00,VWS V14.01,2013-12-26 08:53:00,
2013-12-26 00:58:00,54.0,4.2,30.11,North,6,0.0,2.7,13,0.00,,,0.00,VWS V14.01,2013-12-26 08:58:00,
2013-12-26 01:03:00,54.7,4.8,30.11,NE,49,2.7,2.7,13,0.00,,,0.00,VWS V14.01,2013-12-26 09:03:00,
2013-12-26 01:08:00,54.9,5.0,30.11,SSE,157,0.0,2.2,13,0.00,,,0.00,VWS V14.01,2013-12-26 09:08:00,
2013-12-26 01:13:00,54.7,4.8,30.11,SE,144,0.0,0.0,13,0.00,,,0.00,VWS V14.01,2013-12-26 09:13:00,
2013-12-26 01:18:00,54.3,4.5,30.11,ENE,63,0.0,0.0,13,0.00,,,0.00,VWS V14.01,2013-12-26 09:18:00,
2013-12-26 01:23:00,53.8,4.1,30.11,ENE,63,0.0,0.0,13,0.00,,,0.00,VWS V14.01,2013-12-26 09:23:00,
2013-12-26 01:28:00,53.4,3.8,30.11,East,84,0.0,0.0,13,0.00,,,0.00,VWS V14.01,2013-12-26 09:28:00,
2013-12-26 01:33:00,53.8,4.1,30.11,East,98,2.2,3.6,13,0.00,,,0.00,VWS V14.01,2013-12-26 09:33:00,
2013-12-26 01:38:00,54.0,4.2,30.11,East,98,0.0,0.0,13,0.00,,,0.00,VWS V14.01,2013-12-26 09:38:00,
2013-12-26 01:43:00,54.3,4.5,30.11,SSE,166,0.0,0.0,13,0.00,,,0.00,VWS V14.01,2013-12-26 09:43:00,
2013-12-26 01:48:00,54.3,4.5,30.11,East,99,0.0,0.0,13,0.00,,,0.00,VWS V14.01,2013-12-26 09:48:00,
2013-12-26 01:53:00,54.1,4.4,30.11,SE,137,0.0,0.0,13,0.00,,,0.00,VWS V14.01,2013-12-26 09:53:00,
2013-12-26 01:58:00,54.1,4.4,30.11,ESE,108,0.0,0.0,13,0.00,,,0.00,VWS V14.01,2013-12-26 09:58:00,
2013-12-26 02:03:00,54.5,4.7,30.11,East,86,2.7,3.6,13,0.00,,,0.00,VWS V14.01,2013-12-26 10:03:00,
2013-12-26 02:09:00,55.2,5.2,30.11,East,82,2.7,4.0,13,0.00,,,0.00,VWS V14.01,2013-12-26 10:09:00,
2013-12-26 02:14:00,56.1,4.2,30.11,South,186,2.7,3.6,12,0.00,,,0.00,VWS V14.01,2013-12-26 10:14:00,
2013-12-26 02:19:00,56.5,4.5,30.11,ENE,62,0.0,2.2,12,0.00,,,0.00,VWS V14.01,2013-12-26 10:19:00,
2013-12-26 02:24:00,56.3,4.4,30.11,SE,146,2.7,2.7,12,0.00,,,0.00,VWS V14.01,2013-12-26 10:24:00,
2013-12-26 02:29:00,56.3,4.4,30.11,SE,127,3.1,3.1,12,0.00,,,0.00,VWS V14.01,2013-12-26 10:29:00,
2013-12-26 02:34:00,56.5,4.5,30.11,South,174,4.0,4.0,12,0.00,,,0.00,VWS V14.01,2013-12-26 10:34:00,
2013-12-26 02:39:00,56.7,4.6,30.11,ESE,123,4.0,5.8,12,0.00,,,0.00,VWS V14.01,2013-12-26 10:39:00,
2013-12-26 02:44:00,56.8,4.8,30.11,NE,54,5.4,5.4,12,0.00,,,0.00,VWS V14.01,2013-12-26 10:44:00,
2013-12-26 02:49:00,56.7,4.6,30.11,ENE,78,3.1,3.6,12,0.00,,,0.00,VWS V14.01,2013-12-26 10:49:00,
2013-12-26 02:54:00,56.8,4.8,30.11,East,82,2.7,3.6,12,0.00,,,0.00,VWS V14.01,2013-12-26 10:54:00,
2013-12-26 02:59:00,56.8,4.8,30.11,NNE,33,3.1,4.0,12,0.00,,,0.00,VWS V14.01,2013-12-26 10:59:00,
2013-12-26 03:04:00,56.8,4.8,30.11,NE,50,3.6,3.6,12,0.00,,,0.00,VWS V14.01,2013-12-26 11:04:00,
2013-12-26 03:09:00,56.8,4.8,30.11,ESE,106,2.7,4.9,12,0.00,,,0.00,VWS V14.01,2013-12-26 11:09:00,
2013-12-26 03:14:00,57.0,4.9,30.11,East,95,3.6,4.0,12,0.00,,,0.00,VWS V14.01,2013-12-26 11:14:00,
2013-12-26 03:19:00,57.2,5.1,30.11,ESE,103,8.1,8.1,12,0.00,,,0.00,VWS V14.01,2013-12-26 11:19:00,
2013-12-26 03:24:00,57.2,5.1,30.11,East,95,3.6,7.2,12,0.00,,,0.00,VWS V14.01,2013-12-26 11:24:00,
2013-12-26 03:29:00,57.2,5.1,30.11,East,93,3.6,4.9,12,0.00,,,0.00,VWS V14.01,2013-12-26 11:29:00,
2013-12-26 03:33:00,57.4,5.2,30.11,SE,125,5.4,5.8,12,0.00,,,0.00,VWS V14.01,2013-12-26 11:33:00,
2013-12-26 03:39:00,57.4,5.2,30.11,East,91,4.0,4.9,12,0.00,,,0.00,VWS V14.01,2013-12-26 11:39:00,
2013-12-26 03:44:00,57.4,5.2,30.11,ENE,70,5.8,5.8,12,0.00,,,0.00,VWS V14.01,2013-12-26 11:44:00,
2013-12-26 03:49:00,57.2,5.1,30.11,North,349,4.9,4.9,12,0.00,,,0.00,VWS V14.01,2013-12-26 11:49:00,
2013-12-26 03:54:00,57.2,5.1,30.11,North,357,3.6,6.3,12,0.00,,,0.00,VWS V14.01,2013-12-26 11:54:00,
2013-12-26 03:59:00,57.4,5.2,30.11,ENE,74,8.7,9.6,12,0.00,,,0.00,VWS V14.01,2013-12-26 11:59:00,
2013-12-26 04:04:00,57.6,5.3,30.11,North,0,2.7,2.7,12,0.00,,,0.00,VWS V14.01,2013-12-26 12:04:00,
2013-12-26 04:09:00,57.6,5.3,30.11,East,89,3.1,5.4,12,0.00,,,0.00,VWS V14.01,2013-12-26 12:09:00,
2013-12-26 04:14:00,57.6,5.3,30.11,North,0,4.0,4.0,12,0.00,,,0.00,VWS V14.01,2013-12-26 12:14:00,
2013-12-26 04:19:00,57.6,5.3,30.11,SE,138,3.6,3.6,12,0.00,,,0.00,VWS V14.01,2013-12-26 12:19:00,
2013-12-26 04:24:00,57.6,5.3,30.11,East,98,3.1,3.1,12,0.00,,,0.00,VWS V14.01,2013-12-26 12:24:00,
2013-12-26 04:29:00,57.6,5.3,30.11,North,0,5.4,5.4,12,0.00,,,0.00,VWS V14.01,2013-12-26 12:29:00,
2013-12-26 04:34:00,57.6,5.3,30.11,ESE,111,2.7,2.7,12,0.00,,,0.00,VWS V14.01,2013-12-26 12:34:00,
2013-12-26 04:39:00,57.4,5.2,30.11,NE,46,0.0,4.9,12,0.00,,,0.00,VWS V14.01,2013-12-26 12:39:00,
2013-12-26 04:44:00,57.4,5.2,30.11,East,98,2.7,4.0,12,0.00,,,0.00,VWS V14.01,2013-12-26 12:44:00,
2013-12-26 04:49:00,57.4,5.2,30.11,ESE,110,4.0,4.0,12,0.00,,,0.00,VWS V14.01,2013-12-26 12:49:00,
2013-12-26 04:54:00,57.6,5.3,30.11,ENE,73,5.8,5.8,12,0.00,,,0.00,VWS V14.01,2013-12-26 12:54:00,
2013-12-26 04:59:00,57.6,5.3,30.11,South,177,3.1,4.0,12,0.00,,,0.00,VWS V14.01,2013-12-26 12:59:00,
2013-12-26 05:04:00,57.6,5.3,30.11,ENE,74,5.4,5.8,12,0.00,,,0.00,VWS V14.01,2013-12-26 13:04:00,
2013-12-26 05:09:00,57.4,5.2,30.11,South,177,2.2,3.6,12,0.00,,,0.00,VWS V14.01,2013-12-26 13:09:00,
2013-12-26 05:14:00,56.7,4.6,30.11,SSE,168,0.0,3.1,12,0.00,,,0.00,VWS V14.01,2013-12-26 13:14:00,
2013-12-26 05:19:00,56.1,4.2,30.11,SE,138,3.1,3.1,12,0.00,,,0.00,VWS V14.01,2013-12-26 13:19:00,
2013-12-26 05:24:00,55.9,4.1,30.11,SE,145,0.0,2.7,12,0.00,,,0.00,VWS V14.01,2013-12-26 13:24:00,
2013-12-26 05:29:00,55.9,4.1,30.11,SSE,165,2.2,4.0,12,0.00,,,0.00,VWS V14.01,2013-12-26 13:29:00,
2013-12-26 05:34:00,55.9,4.1,30.11,SSE,165,4.0,4.0,12,0.00,,,0.00,VWS V14.01,2013-12-26 13:34:00,
2013-12-26 05:39:00,55.8,3.9,30.11,South,191,2.7,3.1,12,0.00,,,0.00,VWS V14.01,2013-12-26 13:39:00,
2013-12-26 05:44:00,55.6,3.8,30.11,SW,228,0.0,0.0,12,0.00,,,0.00,VWS V14.01,2013-12-26 13:44:00,
2013-12-26 05:49:00,55.0,5.1,30.11,South,172,0.0,0.0,13,0.00,,,0.00,VWS V14.01,2013-12-26 13:49:00,
2013-12-26 05:54:00,54.9,5.0,30.11,South,175,2.7,2.7,13,0.00,,,0.00,VWS V14.01,2013-12-26 13:54:00,
2013-12-26 05:59:00,54.7,4.8,30.11,ENE,75,0.0,0.0,13,0.00,,,0.00,VWS V14.01,2013-12-26 13:59:00,
2013-12-26 06:04:00,54.5,4.7,30.11,East,85,3.6,5.4,13,0.00,,,0.00,VWS V14.01,2013-12-26 14:04:00,
2013-12-26 06:09:00,54.5,4.7,30.11,ESE,118,2.2,3.6,13,0.00,,,0.00,VWS V14.01,2013-12-26 14:09:00,
2013-12-26 06:14:00,54.3,4.5,30.11,ESE,104,2.2,4.0,13,0.00,,,0.00,VWS V14.01,2013-12-26 14:14:00,
2013-12-26 06:20:00,54.3,4.5,30.11,SSW,200,3.6,3.6,13,0.00,,,0.00,VWS V14.01,2013-12-26 14:20:00,
2013-12-26 06:25:00,54.5,4.7,30.11,East,86,3.6,7.6,13,0.00,,,0.00,VWS V14.01,2013-12-26 14:25:00,
2013-12-26 06:30:00,54.5,4.7,30.11,ENE,71,2.2,4.0,13,0.00,,,0.00,VWS V14.01,2013-12-26 14:30:00,
2013-12-26 06:35:00,54.7,4.8,30.11,East,89,3.1,3.6,13,0.00,,,0.00,VWS V14.01,2013-12-26 14:35:00,
2013-12-26 06:40:00,54.5,4.7,30.11,ENE,65,2.7,5.4,13,0.00,,,0.00,VWS V14.01,2013-12-26 14:40:00,
2013-12-26 06:45:00,54.7,4.8,30.11,East,79,3.1,4.0,13,0.00,,,0.00,VWS V14.01,2013-12-26 14:45:00,
2013-12-26 06:50:00,54.7,4.8,30.11,East,85,5.4,5.4,13,0.00,,,0.00,VWS V14.01,2013-12-26 14:50:00,
2013-12-26 06:55:00,54.5,4.7,30.11,East,79,4.0,6.3,13,0.00,,,0.00,VWS V14.01,2013-12-26 14:55:00,
2013-12-26 07:00:00,54.7,4.8,30.11,NE,38,3.6,5.4,13,0.00,,,0.00,VWS V14.01,2013-12-26 15:00:00,
2013-12-26 07:05:00,54.9,5.0,30.11,NE,55,3.1,3.1,13,0.00,,,0.00,VWS V14.01,2013-12-26 15:05:00,
2013-12-26 07:10:00,54.9,5.0,30.11,NNW,348,3.1,5.4,13,0.00,,,0.00,VWS V14.01,2013-12-26 15:10:00,
2013-12-26 07:15:00,55.0,5.1,30.11,ESE,111,3.1,5.8,13,0.00,,,0.00,VWS V14.01,2013-12-26 15:15:00,
2013-12-26 07:20:00,54.9,5.0,30.11,East,79,3.1,4.0,13,0.00,,,0.00,VWS V14.01,2013-12-26 15:20:00,
2013-12-26 07:25:00,54.9,5.0,30.11,ESE,104,4.0,9.2,13,0.00,,,0.00,VWS V14.01,2013-12-26 15:25:00,
2013-12-26 07:30:00,55.2,5.2,30.11,SSE,158,2.7,3.1,13,0.00,,,0.00,VWS V14.01,2013-12-26 15:30:00,
2013-12-26 07:35:00,55.2,5.2,30.11,SE,144,4.9,4.9,13,0.00,,,0.00,VWS V14.01,2013-12-26 15:35:00,
2013-12-26 07:40:00,55.4,3.7,30.11,ESE,105,3.6,3.6,12,0.00,,,0.00,VWS V14.01,2013-12-26 15:40:00,
2013-12-26 07:45:00,55.4,3.7,30.11,ENE,66,3.1,3.1,12,0.00,,,0.00,VWS V14.01,2013-12-26 15:45:00,
2013-12-26 07:50:00,55.6,3.8,30.11,NE,36,2.7,3.1,12,0.00,,,0.00,VWS V14.01,2013-12-26 15:50:00,
2013-12-26 07:55:00,55.4,3.7,30.14,ESE,112,4.0,4.0,12,0.00,,,0.00,VWS V14.01,2013-12-26 15:55:00,
2013-12-26 08:00:00,55.6,3.8,30.14,NE,44,5.4,5.4,12,0.00,,,0.00,VWS V14.01,2013-12-26 16:00:00,
2013-12-26 08:05:00,55.9,4.1,30.14,East,100,4.0,5.4,12,0.00,,,0.00,VWS V14.01,2013-12-26 16:05:00,
2013-12-26 08:10:00,56.3,4.4,30.14,ESE,120,6.3,6.3,12,0.00,,,0.00,VWS V14.01,2013-12-26 16:10:00,
2013-12-26 08:15:00,56.7,4.6,30.14,SSE,154,3.1,3.6,12,0.00,,,0.00,VWS V14.01,2013-12-26 16:15:00,
2013-12-26 08:20:00,56.8,4.8,30.14,NNE,28,2.7,5.8,12,0.00,,,0.00,VWS V14.01,2013-12-26 16:20:00,
2013-12-26 08:25:00,57.2,5.1,30.14,East,99,8.1,8.1,12,0.00,,,0.00,VWS V14.01,2013-12-26 16:25:00,
2013-12-26 08:30:00,57.6,5.3,30.14,East,93,5.4,5.4,12,0.00,,,0.00,VWS V14.01,2013-12-26 16:30:00,
2013-12-26 08:35:00,57.7,5.5,30.14,ENE,64,8.3,8.3,12,0.00,,,0.00,VWS V14.01,2013-12-26 16:35:00,
2013-12-26 08:40:00,57.9,5.6,30.14,East,82,2.7,2.7,12,0.00,,,0.00,VWS V14.01,2013-12-26 16:40:00,
2013-12-26 08:45:00,58.3,5.9,30.14,East,90,4.9,8.3,12,0.00,,,0.00,VWS V14.01,2013-12-26 16:45:00,
2013-12-26 08:50:00,58.5,6.1,30.14,North,4,5.4,5.8,12,0.00,,,0.00,VWS V14.01,2013-12-26 16:50:00,
2013-12-26 08:55:00,58.5,6.1,30.14,NE,44,7.6,7.6,12,0.00,,,0.00,VWS V14.01,2013-12-26 16:55:00,
2013-12-26 09:00:00,58.6,6.2,30.14,ENE,69,6.3,6.3,12,0.00,,,0.00,VWS V14.01,2013-12-26 17:00:00,
2013-12-26 09:05:00,58.8,6.3,30.14,ESE,116,2.7,7.6,12,0.00,,,0.00,VWS V14.01,2013-12-26 17:05:00,
2013-12-26 09:10:00,59.0,6.5,30.14,ESE,118,5.8,7.2,12,0.00,,,0.00,VWS V14.01,2013-12-26 17:10:00,
2013-12-26 09:15:00,59.4,6.8,30.14,North,6,2.7,3.1,12,0.00,,,0.00,VWS V14.01,2013-12-26 17:15:00,
2013-12-26 09:20:00,59.7,7.0,30.14,ESE,109,3.6,5.8,12,0.00,,,0.00,VWS V14.01,2013-12-26 17:20:00,
2013-12-26 09:25:00,59.9,7.2,30.14,East,87,4.0,4.9,12,0.00,,,0.00,VWS V14.01,2013-12-26 17:25:00,
2013-12-26 09:30:00,60.1,7.3,30.14,NNW,334,4.0,5.8,12,0.00,,,0.00,VWS V14.01,2013-12-26 17:30:00,
2013-12-26 09:35:00,60.3,7.5,30.14,NNE,32,5.8,5.8,12,0.00,,,0.00,VWS V14.01,2013-12-26 17:35:00,
2013-12-26 09:40:00,60.4,7.6,30.11,South,181,5.8,5.8,12,0.00,,,0.00,VWS V14.01,2013-12-26 17:40:00,
2013-12-26 09:45:00,60.4,7.6,30.11,East,97,4.0,10.1,12,0.00,,,0.00,VWS V14.01,2013-12-26 17:45:00,
2013-12-26 09:50:00,60.8,6.0,30.11,ENE,67,3.6,3.6,11,0.00,,,0.00,VWS V14.01,2013-12-26 17:50:00,
2013-12-26 09:55:00,61.0,6.1,30.14,East,84,5.4,5.4,11,0.00,,,0.00,VWS V14.01,2013-12-26 17:55:00,
2013-12-26 10:00:00,61.2,6.3,30.14,ESE,112,3.1,3.1,11,0.00,,,0.00,VWS V14.01,2013-12-26 18:00:00,
2013-12-26 10:05:00,61.3,6.4,30.14,South,169,3.1,8.3,11,0.00,,,0.00,VWS V14.01,2013-12-26 18:05:00,
2013-12-26 10:10:00,61.3,6.4,30.14,SSW,192,0.0,2.7,11,0.00,,,0.00,VWS V14.01,2013-12-26 18:10:00,
2013-12-26 10:15:00,61.7,6.7,30.14,SSW,204,3.1,5.4,11,0.00,,,0.00,VWS V14.01,2013-12-26 18:15:00,
2013-12-26 10:20:00,61.9,6.8,30.14,SSW,199,3.1,4.9,11,0.00,,,0.00,VWS V14.01,2013-12-26 18:20:00,
2013-12-26 10:25:00,62.2,7.1,30.14,South,181,5.4,5.4,11,0.00,,,0.00,VWS V14.01,2013-12-26 18:25:00,
2013-12-26 10:30:00,62.4,7.2,30.14,SSW,192,2.7,4.9,11,0.00,,,0.00,VWS V14.01,2013-12-26 18:30:00,
2013-12-26 10:35:00,62.4,7.2,30.14,ESE,104,3.1,4.0,11,0.00,,,0.00,VWS V14.01,2013-12-26 18:35:00,
2013-12-26 10:40:00,62.6,7.4,30.14,ESE,116,4.0,5.4,11,0.00,,,0.00,VWS V14.01,2013-12-26 18:40:00,
2013-12-26 10:45:00,62.8,7.5,30.14,East,82,4.0,4.0,11,0.00,,,0.00,VWS V14.01,2013-12-26 18:45:00,
2013-12-26 10:50:00,62.8,7.5,30.14,ESE,123,5.4,5.4,11,0.00,,,0.00,VWS V14.01,2013-12-26 18:50:00,
2013-12-26 10:55:00,63.0,7.7,30.14,NNE,24,5.8,5.8,11,0.00,,,0.00,VWS V14.01,2013-12-26 18:55:00,
2013-12-26 11:00:00,63.1,7.8,30.14,ESE,111,3.6,5.4,11,0.00,,,0.00,VWS V14.01,2013-12-26 19:00:00,
2013-12-26 11:05:00,63.5,8.1,30.14,NNE,12,2.7,4.9,11,0.00,,,0.00,VWS V14.01,2013-12-26 19:05:00,
2013-12-26 11:10:00,63.7,8.2,30.11,ESE,107,3.6,5.8,11,0.00,,,0.00,VWS V14.01,2013-12-26 19:10:00,
2013-12-26 11:15:00,63.9,8.4,30.11,ENE,68,9.2,9.2,11,0.00,,,0.00,VWS V14.01,2013-12-26 19:15:00,
2013-12-26 11:20:00,64.2,8.6,30.11,ENE,69,3.6,8.1,11,0.00,,,0.00,VWS V14.01,2013-12-26 19:20:00,
2013-12-26 11:25:00,64.6,6.8,30.11,NE,37,5.8,5.8,10,0.00,,,0.00,VWS V14.01,2013-12-26 19:25:00,
2013-12-26 11:30:00,64.8,6.9,30.11,SSW,207,3.1,6.3,10,0.00,,,0.00,VWS V14.01,2013-12-26 19:30:00,
2013-12-26 11:35:00,64.9,7.1,30.11,SE,124,2.7,3.6,10,0.00,,,0.00,VWS V14.01,2013-12-26 19:35:00,
2013-12-26 11:40:00,65.1,7.2,30.11,NE,38,3.6,5.8,10,0.00,,,0.00,VWS V14.01,2013-12-26 19:40:00,
2013-12-26 11:46:00,65.1,7.2,30.11,North,6,3.6,7.2,10,0.00,,,0.00,VWS V14.01,2013-12-26 19:46:00,
2013-12-26 11:51:00,65.1,7.2,30.11,ENE,69,8.7,8.7,10,0.00,,,0.00,VWS V14.01,2013-12-26 19:51:00,
2013-12-26 11:56:00,64.9,7.1,30.11,NNE,16,5.4,8.3,10,0.00,,,0.00,VWS V14.01,2013-12-26 19:56:00,
2013-12-26 12:01:00,64.9,7.1,30.11,East,88,5.4,5.8,10,0.00,,,0.00,VWS V14.01,2013-12-26 20:01:00,
2013-12-26 12:06:00,64.9,7.1,30.11,East,99,5.8,8.7,10,0.00,,,0.00,VWS V14.01,2013-12-26 20:06:00,
2013-12-26 12:11:00,65.1,7.2,30.08,East,84,5.8,6.7,10,0.00,,,0.00,VWS V14.01,2013-12-26 20:11:00,
2013-12-26 12:16:00,65.1,7.2,30.08,East,95,5.8,9.2,10,0.00,,,0.00,VWS V14.01,2013-12-26 20:16:00,
2013-12-26 12:21:00,65.1,7.2,30.08,NNE,13,3.6,3.6,10,0.00,,,0.00,VWS V14.01,2013-12-26 20:21:00,
2013-12-26 12:26:00,65.1,7.2,30.08,ENE,63,8.1,10.1,10,0.00,,,0.00,VWS V14.01,2013-12-26 20:26:00,
2013-12-26 12:31:00,64.9,7.1,30.08,SE,130,5.4,5.4,10,0.00,,,0.00,VWS V14.01,2013-12-26 20:31:00,
2013-12-26 12:36:00,64.9,7.1,30.08,NNE,31,5.4,7.6,10,0.00,,,0.00,VWS V14.01,2013-12-26 20:36:00,
2013-12-26 12:41:00,64.9,7.1,30.08,East,86,4.0,8.1,10,0.00,,,0.00,VWS V14.01,2013-12-26 20:41:00,
2013-12-26 12:46:00,65.1,7.2,30.08,ENE,59,4.0,5.4,10,0.00,,,0.00,VWS V14.01,2013-12-26 20:46:00,
2013-12-26 12:51:00,65.3,7.4,30.08,NNE,16,5.8,8.3,10,0.00,,,0.00,VWS V14.01,2013-12-26 20:51:00,
2013-12-26 12:56:00,65.7,7.6,30.08,NNE,21,8.3,8.3,10,0.00,,,0.00,VWS V14.01,2013-12-26 20:56:00,
2013-12-26 13:01:00,65.8,7.8,30.08,NNE,28,11.0,11.0,10,0.00,,,0.00,VWS V14.01,2013-12-26 21:01:00,
2013-12-26 13:06:00,65.7,7.6,30.08,NNW,341,3.1,3.1,10,0.00,,,0.00,VWS V14.01,2013-12-26 21:06:00,
2013-12-26 13:11:00,65.8,7.8,30.08,NE,54,4.0,8.7,10,0.00,,,0.00,VWS V14.01,2013-12-26 21:11:00,
2013-12-26 13:16:00,65.8,7.8,30.08,ENE,78,6.3,6.3,10,0.00,,,0.00,VWS V14.01,2013-12-26 21:16:00,
2013-12-26 13:21:00,66.0,7.9,30.08,NW,321,5.4,8.1,10,0.00,,,0.00,VWS V14.01,2013-12-26 21:21:00,
2013-12-26 13:26:00,66.0,7.9,30.05,ENE,66,4.0,5.8,10,0.00,,,0.00,VWS V14.01,2013-12-26 21:26:00,
2013-12-26 13:31:00,66.0,7.9,30.05,NNE,12,3.6,5.8,10,0.00,,,0.00,VWS V14.01,2013-12-26 21:31:00,
2013-12-26 13:36:00,66.0,7.9,30.05,NE,34,6.7,8.3,10,0.00,,,0.00,VWS V14.01,2013-12-26 21:36:00,
2013-12-26 13:41:00,66.0,7.9,30.05,NE,52,4.0,6.3,10,0.00,,,0.00,VWS V14.01,2013-12-26 21:41:00,
2013-12-26 13:46:00,66.0,7.9,30.05,ENE,73,6.3,10.5,10,0.00,,,0.00,VWS V14.01,2013-12-26 21:46:00,
2013-12-26 13:51:00,66.2,8.1,30.05,NE,42,7.2,7.2,10,0.00,,,0.00,VWS V14.01,2013-12-26 21:51:00,
2013-12-26 13:56:00,66.2,8.1,30.05,ENE,66,5.4,8.1,10,0.00,,,0.00,VWS V14.01,2013-12-26 21:56:00,
2013-12-26 14:01:00,66.0,7.9,30.05,NE,50,6.3,6.3,10,0.00,,,0.00,VWS V14.01,2013-12-26 22:01:00,
2013-12-26 14:06:00,65.8,7.8,30.05,NE,53,3.6,3.6,10,0.00,,,0.00,VWS V14.01,2013-12-26 22:06:00,
2013-12-26 14:11:00,65.8,7.8,30.05,NE,56,5.4,5.4,10,0.00,,,0.00,VWS V14.01,2013-12-26 22:11:00,
2013-12-26 14:16:00,65.7,7.6,30.05,East,81,8.3,8.3,10,0.00,,,0.00,VWS V14.01,2013-12-26 22:16:00,
2013-12-26 14:21:00,65.7,7.6,30.05,ENE,61,5.8,5.8,10,0.00,,,0.00,VWS V14.01,2013-12-26 22:21:00,
2013-12-26 14:26:00,65.7,7.6,30.05,NNE,29,8.1,8.1,10,0.00,,,0.00,VWS V14.01,2013-12-26 22:26:00,
2013-12-26 14:31:00,65.5,7.5,30.05,NNE,22,5.8,8.3,10,0.00,,,0.00,VWS V14.01,2013-12-26 22:31:00,
2013-12-26 14:35:00,65.3,7.4,30.05,North,357,8.7,8.7,10,0.00,,,0.00,VWS V14.01,2013-12-26 22:35:00,
2013-12-26 14:40:00,65.3,7.4,30.05,NE,47,10.5,10.5,10,0.00,,,0.00,VWS V14.01,2013-12-26 22:40:00,
2013-12-26 14:45:00,65.5,7.5,30.05,NNE,33,10.5,10.5,10,0.00,,,0.00,VWS V14.01,2013-12-26 22:45:00,
2013-12-26 14:50:00,65.3,7.4,30.05,NE,49,5.8,8.3,10,0.00,,,0.00,VWS V14.01,2013-12-26 22:50:00,
2013-12-26 14:55:00,65.3,7.4,30.05,ENE,63,4.9,6.3,10,0.00,,,0.00,VWS V14.01,2013-12-26 22:55:00,
2013-12-26 15:00:00,65.3,7.4,30.05,NNE,27,8.1,8.1,10,0.00,,,0.00,VWS V14.01,2013-12-26 23:00:00,
2013-12-26 15:05:00,65.3,7.4,30.05,NNE,28,5.4,6.3,10,0.00,,,0.00,VWS V14.01,2013-12-26 23:05:00,
2013-12-26 15:10:00,65.1,7.2,30.05,SSW,196,3.1,3.6,10,0.00,,,0.00,VWS V14.01,2013-12-26 23:10:00,
2013-12-26 15:15:00,65.1,7.2,30.05,NNE,21,2.7,6.3,10,0.00,,,0.00,VWS V14.01,2013-12-26 23:15:00,
2013-12-26 15:20:00,64.9,7.1,30.05,ESE,102,4.0,8.7,10,0.00,,,0.00,VWS V14.01,2013-12-26 23:20:00,
2013-12-26 15:25:00,64.8,6.9,30.05,ENE,64,3.1,8.3,10,0.00,,,0.00,VWS V14.01,2013-12-26 23:25:00,
2013-12-26 15:30:00,64.6,6.8,30.05,ENE,62,6.3,6.3,10,0.00,,,0.00,VWS V14.01,2013-12-26 23:30:00,
2013-12-26 15:35:00,64.4,6.7,30.05,NE,56,8.3,8.3,10,0.00,,,0.00,VWS V14.01,2013-12-26 23:35:00,
2013-12-26 15:36:00,64.4,6.7,30.05,NE,53,5.8,8.1,10,0.00,,,0.00,VWS V14.01,2013-12-26 23:36:00,
2013-12-26 15:41:00,64.4,6.7,30.05,East,96,4.9,8.7,10,0.00,,,0.00,VWS V14.01,2013-12-26 23:41:00,
2013-12-26 15:42:00,64.4,6.7,30.05,SW,233,4.9,8.7,10,0.00,,,0.00,VWS V14.01,2013-12-26 23:42:00,
2013-12-26 15:47:00,64.2,8.6,30.05,NE,50,4.9,4.9,11,0.00,,,0.00,VWS V14.01,2013-12-26 23:47:00,
2013-12-26 15:49:00,64.0,8.5,30.05,ENE,74,3.1,8.3,11,0.00,,,0.00,VWS V14.01,2013-12-26 23:49:00,
2013-12-26 15:54:00,64.0,8.5,30.05,NNE,33,2.2,4.9,11,0.00,,,0.00,VWS V14.01,2013-12-26 23:54:00,
2013-12-26 15:59:00,63.9,8.4,30.05,ENE,71,6.3,6.3,11,0.00,,,0.00,VWS V14.01,2013-12-26 23:59:00,
2013-12-26 16:04:00,63.5,8.1,30.05,NE,50,4.5,5.4,11,0.00,,,0.00,VWS V14.01,2013-12-27 00:04:00,
2013-12-26 16:09:00,63.5,8.1,30.05,SSE,152,4.0,5.4,11,0.00,,,0.00,VWS V14.01,2013-12-27 00:09:00,
2013-12-26 16:14:00,63.3,7.9,30.05,North,357,2.7,3.1,11,0.00,,,0.00,VWS V14.01,2013-12-27 00:14:00,
2013-12-26 16:19:00,63.3,7.9,30.05,SE,139,3.6,4.0,11,0.00,,,0.00,VWS V14.01,2013-12-27 00:19:00,
2013-12-26 16:24:00,63.1,7.8,30.05,ENE,72,4.9,8.1,11,0.00,,,0.00,VWS V14.01,2013-12-27 00:24:00,
2013-12-26 16:29:00,62.8,7.5,30.05,ENE,78,2.7,6.3,11,0.00,,,0.00,VWS V14.01,2013-12-27 00:29:00,
2013-12-26 16:34:00,62.6,7.4,30.05,ENE,66,3.1,3.1,11,0.00,,,0.00,VWS V14.01,2013-12-27 00:34:00,
2013-12-26 16:39:00,62.1,7.0,30.05,ENE,75,5.8,5.8,11,0.00,,,0.00,VWS V14.01,2013-12-27 00:39:00,
2013-12-26 16:44:00,61.7,6.7,30.05,ESE,118,10.5,10.5,11,0.00,,,0.00,VWS V14.01,2013-12-27 00:44:00,
2013-12-26 16:49:00,61.3,6.4,30.05,NE,35,4.0,5.8,11,0.00,,,0.00,VWS V14.01,2013-12-27 00:49:00,
2013-12-26 16:54:00,61.2,6.3,30.05,East,97,2.7,4.0,11,0.00,,,0.00,VWS V14.01,2013-12-27 00:54:00,
2013-12-26 16:59:00,60.8,6.0,30.05,ESE,118,5.8,5.8,11,0.00,,,0.00,VWS V14.01,2013-12-27 00:59:00,
2013-12-26 17:04:00,60.8,6.0,30.05,NNE,18,5.8,5.8,11,0.00,,,0.00,VWS V14.01,2013-12-27 01:04:00,
2013-12-26 17:09:00,60.6,7.8,30.05,East,91,3.1,5.8,12,0.00,,,0.00,VWS V14.01,2013-12-27 01:09:00,
2013-12-26 17:14:00,60.6,7.8,30.05,ENE,64,4.9,5.8,12,0.00,,,0.00,VWS V14.01,2013-12-27 01:14:00,
2013-12-26 17:19:00,60.6,7.8,30.05,WNW,291,0.0,2.7,12,0.00,,,0.00,VWS V14.01,2013-12-27 01:19:00,
2013-12-26 17:24:00,60.6,7.8,30.05,North,4,4.0,4.9,12,0.00,,,0.00,VWS V14.01,2013-12-27 01:24:00,
2013-12-26 17:29:00,60.4,7.6,30.05,East,81,7.6,7.6,12,0.00,,,0.00,VWS V14.01,2013-12-27 01:29:00,
2013-12-26 17:34:00,60.4,7.6,30.05,ESE,111,4.0,5.4,12,0.00,,,0.00,VWS V14.01,2013-12-27 01:34:00,
2013-12-26 17:39:00,60.3,7.5,30.05,NNE,26,2.7,4.0,12,0.00,,,0.00,VWS V14.01,2013-12-27 01:39:00,
2013-12-26 17:44:00,60.3,7.5,30.05,East,88,2.7,5.8,12,0.00,,,0.00,VWS V14.01,2013-12-27 01:44:00,
2013-12-26 17:49:00,60.1,7.3,30.05,East,82,0.0,3.1,12,0.00,,,0.00,VWS V14.01,2013-12-27 01:49:00,
2013-12-26 17:54:00,60.3,7.5,30.05,ENE,69,5.4,5.8,12,0.00,,,0.00,VWS V14.01,2013-12-27 01:54:00,
2013-12-26 17:59:00,60.3,7.5,30.05,North,357,5.8,5.8,12,0.00,,,0.00,VWS V14.01,2013-12-27 01:59:00,
2013-12-26 18:04:00,60.4,7.6,30.05,NE,55,4.0,4.0,12,0.00,,,0.00,VWS V14.01,2013-12-27 02:04:00,
2013-12-26 18:09:00,60.4,7.6,30.08,ENE,60,4.9,6.7,12,0.00,,,0.00,VWS V14.01,2013-12-27 02:09:00,
2013-12-26 18:14:00,60.6,7.8,30.08,ENE,69,5.4,5.8,12,0.00,,,0.00,VWS V14.01,2013-12-27 02:14:00,
2013-12-26 18:19:00,60.6,7.8,30.08,North,6,3.6,7.2,12,0.00,,,0.00,VWS V14.01,2013-12-27 02:19:00,
2013-12-26 18:24:00,60.6,7.8,30.08,ESE,102,2.7,5.4,12,0.00,,,0.00,VWS V14.01,2013-12-27 02:24:00,
2013-12-26 18:29:00,60.6,7.8,30.08,ENE,70,5.4,5.4,12,0.00,,,0.00,VWS V14.01,2013-12-27 02:29:00,
2013-12-26 18:34:00,60.6,7.8,30.08,ENE,67,4.0,5.4,12,0.00,,,0.00,VWS V14.01,2013-12-27 02:34:00,
2013-12-26 18:39:00,60.6,7.8,30.08,ENE,72,4.9,6.3,12,0.00,,,0.00,VWS V14.01,2013-12-27 02:39:00,
2013-12-26 18:44:00,60.6,7.8,30.08,ENE,58,3.1,3.6,12,0.00,,,0.00,VWS V14.01,2013-12-27 02:44:00,
2013-12-26 18:50:00,60.6,7.8,30.08,NE,56,3.1,4.0,12,0.00,,,0.00,VWS V14.01,2013-12-27 02:50:00,
2013-12-26 18:55:00,60.4,7.6,30.08,East,95,3.1,5.4,12,0.00,,,0.00,VWS V14.01,2013-12-27 02:55:00,
2013-12-26 19:00:00,60.4,7.6,30.08,ENE,66,2.7,4.0,12,0.00,,,0.00,VWS V14.01,2013-12-27 03:00:00,
2013-12-26 19:04:00,60.3,7.5,30.08,East,88,0.0,4.0,12,0.00,,,0.00,VWS V14.01,2013-12-27 03:04:00,
2013-12-26 19:10:00,60.1,7.3,30.08,SSW,199,0.0,3.6,12,0.00,,,0.00,VWS V14.01,2013-12-27 03:10:00,
2013-12-26 19:15:00,59.9,7.2,30.08,SE,144,0.0,3.6,12,0.00,,,0.00,VWS V14.01,2013-12-27 03:15:00,
2013-12-26 19:20:00,60.1,7.3,30.08,NNE,22,3.6,3.6,12,0.00,,,0.00,VWS V14.01,2013-12-27 03:20:00,
2013-12-26 19:25:00,60.1,7.3,30.08,ENE,74,2.7,4.9,12,0.00,,,0.00,VWS V14.01,2013-12-27 03:25:00,
2013-12-26 19:30:00,60.1,7.3,30.08,ENE,65,5.4,8.1,12,0.00,,,0.00,VWS V14.01,2013-12-27 03:30:00,
2013-12-26 19:35:00,60.1,7.3,30.08,NE,51,2.7,4.9,12,0.00,,,0.00,VWS V14.01,2013-12-27 03:35:00,
2013-12-26 19:40:00,60.1,7.3,30.08,East,81,4.9,4.9,12,0.00,,,0.00,VWS V14.01,2013-12-27 03:40:00,
2013-12-26 19:45:00,60.1,7.3,30.08,North,2,3.6,5.4,12,0.00,,,0.00,VWS V14.01,2013-12-27 03:45:00,
2013-12-26 19:50:00,59.9,7.2,30.08,ENE,71,2.2,4.9,12,0.00,,,0.00,VWS V14.01,2013-12-27 03:50:00,
2013-12-26 19:55:00,59.9,7.2,30.11,East,96,4.0,4.0,12,0.00,,,0.00,VWS V14.01,2013-12-27 03:55:00,
2013-12-26 20:00:00,59.9,7.2,30.11,ENE,73,3.6,4.0,12,0.00,,,0.00,VWS V14.01,2013-12-27 04:00:00,
2013-12-26 20:05:00,59.7,7.0,30.11,East,96,2.7,5.8,12,0.00,,,0.00,VWS V14.01,2013-12-27 04:05:00,
2013-12-26 20:10:00,59.7,7.0,30.11,East,94,3.6,5.4,12,0.00,,,0.00,VWS V14.01,2013-12-27 04:10:00,
2013-12-26 20:15:00,59.5,6.9,30.11,SE,136,2.7,3.6,12,0.00,,,0.00,VWS V14.01,2013-12-27 04:15:00,
2013-12-26 20:20:00,59.5,6.9,30.11,East,82,2.7,3.6,12,0.00,,,0.00,VWS V14.01,2013-12-27 04:20:00,
2013-12-26 20:25:00,59.4,6.8,30.11,East,98,0.0,2.7,12,0.00,,,0.00,VWS V14.01,2013-12-27 04:25:00,
2013-12-26 20:30:00,59.4,6.8,30.11,East,80,0.0,0.0,12,0.00,,,0.00,VWS V14.01,2013-12-27 04:30:00,
2013-12-26 20:35:00,59.4,6.8,30.11,ENE,59,4.9,5.4,12,0.00,,,0.00,VWS V14.01,2013-12-27 04:35:00,
2013-12-26 20:40:00,59.4,6.8,30.11,ENE,69,4.9,5.4,12,0.00,,,0.00,VWS V14.01,2013-12-27 04:40:00,
2013-12-26 20:45:00,59.4,6.8,30.11,ENE,72,0.0,0.0,12,0.00,,,0.00,VWS V14.01,2013-12-27 04:45:00,
2013-12-26 20:50:00,59.4,6.8,30.11,ENE,74,5.4,5.4,12,0.00,,,0.00,VWS V14.01,2013-12-27 04:50:00,
2013-12-26 20:55:00,59.4,6.8,30.11,NE,49,3.6,4.0,12,0.00,,,0.00,VWS V14.01,2013-12-27 04:55:00,
2013-12-26 21:00:00,59.4,6.8,30.11,ENE,69,5.8,5.8,12,0.00,,,0.00,VWS V14.01,2013-12-27 05:00:00,
2013-12-26 21:01:00,59.4,6.8,30.11,NE,53,4.0,5.8,12,0.00,,,0.00,VWS V14.01,2013-12-27 05:01:00,
2013-12-26 21:02:00,59.4,6.8,30.11,ENE,58,5.4,5.4,12,0.00,,,0.00,VWS V14.01,2013-12-27 05:02:00,
2013-12-26 21:07:00,59.4,6.8,30.11,ENE,64,3.6,4.9,12,0.00,,,0.00,VWS V14.01,2013-12-27 05:07:00,
2013-12-26 21:12:00,59.4,6.8,30.11,East,79,2.2,3.1,12,0.00,,,0.00,VWS V14.01,2013-12-27 05:12:00,
2013-12-26 21:17:00,59.4,6.8,30.11,SSE,147,0.0,4.0,12,0.00,,,0.00,VWS V14.01,2013-12-27 05:17:00,
2013-12-26 21:22:00,59.2,6.6,30.11,ESE,120,2.2,3.1,12,0.00,,,0.00,VWS V14.01,2013-12-27 05:22:00,
2013-12-26 21:27:00,59.0,6.5,30.11,East,96,3.1,3.1,12,0.00,,,0.00,VWS V14.01,2013-12-27 05:27:00,
2013-12-26 21:32:00,58.6,6.2,30.11,ESE,110,0.0,0.0,12,0.00,,,0.00,VWS V14.01,2013-12-27 05:32:00,
2013-12-26 21:37:00,58.5,6.1,30.11,ENE,72,0.0,2.2,12,0.00,,,0.00,VWS V14.01,2013-12-27 05:37:00,
2013-12-26 21:42:00,58.5,6.1,30.11,NE,48,3.1,7.2,12,0.00,,,0.00,VWS V14.01,2013-12-27 05:42:00,
2013-12-26 21:47:00,59.0,6.5,30.11,NE,47,3.6,6.3,12,0.00,,,0.00,VWS V14.01,2013-12-27 05:47:00,
2013-12-26 21:52:00,59.2,6.6,30.11,ENE,70,2.2,4.0,12,0.00,,,0.00,VWS V14.01,2013-12-27 05:52:00,
2013-12-26 21:57:00,59.2,6.6,30.11,SSE,156,2.2,2.2,12,0.00,,,0.00,VWS V14.01,2013-12-27 05:57:00,
2013-12-26 22:02:00,59.2,6.6,30.11,ENE,57,3.1,6.3,12,0.00,,,0.00,VWS V14.01,2013-12-27 06:02:00,
2013-12-26 22:07:00,59.2,6.6,30.11,NW,320,2.7,5.4,12,0.00,,,0.00,VWS V14.01,2013-12-27 06:07:00,
2013-12-26 22:12:00,59.2,6.6,30.11,ENE,59,5.8,6.3,12,0.00,,,0.00,VWS V14.01,2013-12-27 06:12:00,
2013-12-26 22:17:00,59.4,6.8,30.11,ENE,68,3.6,4.0,12,0.00,,,0.00,VWS V14.01,2013-12-27 06:17:00,
2013-12-26 22:22:00,59.4,6.8,30.11,ENE,67,4.9,5.8,12,0.00,,,0.00,VWS V14.01,2013-12-27 06:22:00,
2013-12-26 22:27:00,59.4,6.8,30.11,SE,128,3.6,5.8,12,0.00,,,0.00,VWS V14.01,2013-12-27 06:27:00,
2013-12-26 22:32:00,59.2,6.6,30.11,ENE,75,7.6,7.6,12,0.00,,,0.00,VWS V14.01,2013-12-27 06:32:00,
2013-12-26 22:37:00,59.2,6.6,30.11,NE,37,5.4,5.4,12,0.00,,,0.00,VWS V14.01,2013-12-27 06:37:00,
2013-12-26 22:42:00,59.2,6.6,30.08,ENE,73,4.0,4.0,12,0.00,,,0.00,VWS V14.01,2013-12-27 06:42:00,
2013-12-26 22:47:00,59.2,6.6,30.08,ENE,63,4.9,6.3,12,0.00,,,0.00,VWS V14.01,2013-12-27 06:47:00,
2013-12-26 22:52:00,59.4,6.8,30.11,ENE,69,3.6,4.9,12,0.00,,,0.00,VWS V14.01,2013-12-27 06:52:00,
2013-12-26 22:57:00,59.4,6.8,30.11,WNW,303,0.0,8.1,12,0.00,,,0.00,VWS V14.01,2013-12-27 06:57:00,
2013-12-26 23:02:00,59.4,6.8,30.11,East,87,5.4,5.8,12,0.00,,,0.00,VWS V14.01,2013-12-27 07:02:00,
2013-12-26 23:07:00,59.5,6.9,30.11,ENE,77,2.7,3.6,12,0.00,,,0.00,VWS V14.01,2013-12-27 07:07:00,
2013-12-26 23:12:00,59.5,6.9,30.11,East,86,3.1,5.4,12,0.00,,,0.00,VWS V14.01,2013-12-27 07:12:00,
2013-12-26 23:17:00,59.5,6.9,30.11,NNE,32,3.6,3.6,12,0.00,,,0.00,VWS V14.01,2013-12-27 07:17:00,
2013-12-26 23:22:00,59.5,6.9,30.11,East,87,4.0,5.8,12,0.00,,,0.00,VWS V14.01,2013-12-27 07:22:00,
2013-12-26 23:27:00,59.7,7.0,30.08,North,0,3.1,8.3,12,0.00,,,0.00,VWS V14.01,2013-12-27 07:27:00,
2013-12-26 23:32:00,59.7,7.0,30.08,SE,134,5.4,5.4,12,0.00,,,0.00,VWS V14.01,2013-12-27 07:32:00,
2013-12-26 23:37:00,59.7,7.0,30.11,NE,56,5.4,5.4,12,0.00,,,0.00,VWS V14.01,2013-12-27 07:37:00,
2013-12-26 23:42:00,59.7,7.0,30.11,East,93,3.6,4.0,12,0.00,,,0.00,VWS V14.01,2013-12-27 07:42:00,
2013-12-26 23:47:00,59.4,6.8,30.11,SSE,163,0.0,0.0,12,0.00,,,0.00,VWS V14.01,2013-12-27 07:47:00,
2013-12-26 23:52:00,59.0,6.5,30.11,SE,140,0.0,0.0,12,0.00,,,0.00,VWS V14.01,2013-12-27 07:52:00,
2013-12-26 23:58:00,58.6,6.2,30.11,SSE,158,2.7,3.1,12,0.00,,,0.00,VWS V14.01,2013-12-27 07:58:00,